Tracking 35334 objects as of 12-Sep-2026
HD Live streaming from Space Station
objects crossing your sky now

STELLA

Track STELLA now!
10-day predictions
STELLA is classified as:


NORAD ID: 22824
Int'l Code: 1993-061B
Launch date: September 26, 1993
Source: France (FR)
Launch site: FRENCH GUIANA (FRGUI)
Your satellite tracking list
Your tracking list is empty




NASA's NSSDC Master Catalog

Two Line Element Set (TLE):
1 22824U 93061B   26255.31521123 -.00000020  00000-0  10105-4 0  9999
2 22824  98.7640 319.8426 0006145 353.5807  51.5838 14.27472368717205
Source of the keplerian elements: AFSPC